| time (UTC) | temp F | wind direction | speed MPH | gust MPH | rain 1hr in | rain 24hr in | rain mn in | humidity % | barometer mb |
| 20260903040108 | 56 | 64 | 0.0 | 5.0 | 0.00 | 0.23 | 0.23 | 93 | 1008.3 |
| 20260903034608 | 56 | 0 | 0.0 | 4.0 | 0.00 | 0.23 | 0.23 | 93 | 1008.1 |
| 20260903033100 | 56 | 185 | 0.0 | 2.0 | 0.00 | 0.23 | 0.23 | 92 | 1008.0 |
| 20260903031623 | 56 | 0 | 0.0 | 1.0 | 0.00 | 0.23 | 0.23 | 92 | 1007.8 |
| 20260903030059 | 56 | 0 | 0.0 | 3.0 | 0.00 | 0.23 | 0.23 | 91 | 1007.6 |
| 20260903024555 | 57 | 233 | 0.0 | 4.0 | 0.00 | 0.23 | 0.23 | 90 | 1007.5 |
| 20260903023055 | 58 | 77 | 1.0 | 5.0 | 0.00 | 0.23 | 0.23 | 90 | 1007.4 |
| 20260903021559 | 58 | 155 | 0.0 | 4.0 | 0.00 | 0.23 | 0.23 | 87 | 1007.3 |
| 20260903020107 | 58 | 221 | 0.0 | 3.0 | 0.00 | 0.23 | 0.23 | 89 | 1007.1 |
| 20260903014601 | 58 | 0 | 1.0 | 7.0 | 0.00 | 0.23 | 0.23 | 88 | 1006.9 |
| 20260903013102 | 58 | 201 | 2.0 | 6.0 | 0.00 | 0.23 | 0.23 | 89 | 1007.0 |
| 20260903011602 | 58 | 159 | 1.0 | 4.0 | 0.00 | 0.23 | 0.23 | 90 | 1006.8 |
| 20260903010104 | 58 | 0 | 1.0 | 7.0 | 0.00 | 0.23 | 0.23 | 91 | 1006.7 |
| 20260903004558 | 58 | 260 | 1.0 | 6.0 | 0.00 | 0.23 | 0.23 | 92 | 1006.6 |
| 20260903003102 | 57 | 0 | 0.0 | 6.0 | 0.00 | 0.23 | 0.23 | 92 | 1006.6 |
| 20260903001610 | 58 | 0 | 0.0 | 5.0 | 0.00 | 0.23 | 0.23 | 93 | 1006.4 |
| 20260903000103 | 58 | 213 | 1.0 | 5.0 | 0.01 | 0.23 | 0.23 | 94 | 1006.4 |
| 20260902234600 | 57 | 0 | 1.0 | 6.0 | 0.04 | 0.23 | 0.23 | 94 | 1006.2 |
| 20260902233103 | 57 | 229 | 1.0 | 5.0 | 0.04 | 0.23 | 0.23 | 94 | 1006.3 |
| 20260902231601 | 57 | 0 | 1.0 | 6.0 | 0.04 | 0.23 | 0.23 | 94 | 1006.2 |
| 20260902224556 | 57 | 132 | 2.0 | 9.0 | 0.00 | 0.19 | 0.19 | 92 | 1005.9 |
| 20260902223102 | 57 | 209 | 3.0 | 11.0 | 0.00 | 0.19 | 0.19 | 92 | 1005.8 |
| 20260902221608 | 57 | 241 | 2.0 | 8.0 | 0.01 | 0.19 | 0.19 | 92 | 1006.0 |
| 20260902220104 | 57 | 164 | 1.0 | 10.0 | 0.01 | 0.19 | 0.19 | 92 | 1005.7 |
| 20260902214604 | 56 | 180 | 2.0 | 9.0 | 0.01 | 0.19 | 0.19 | 92 | 1005.8 |
| 20260902213059 | 56 | 176 | 2.0 | 10.0 | 0.01 | 0.19 | 0.19 | 93 | 1005.7 |
| 20260902211611 | 56 | 180 | 2.0 | 11.0 | 0.00 | 0.18 | 0.18 | 92 | 1005.7 |
| 20260902210118 | 56 | 145 | 3.0 | 15.0 | 0.01 | 0.18 | 0.18 | 91 | 1005.7 |
| 20260902204603 | 56 | 123 | 1.0 | 11.0 | 0.01 | 0.18 | 0.18 | 91 | 1005.7 |
| 20260902203059 | 56 | 0 | 0.0 | 0.0 | 0.04 | 0.18 | 0.18 | 91 | 1005.6 |
| 20260902201612 | 56 | 0 | 0.0 | 0.0 | 0.07 | 0.18 | 0.18 | 92 | 1005.5 |
| 20260902200107 | 56 | 0 | 0.0 | 0.0 | 0.08 | 0.17 | 0.17 | 92 | 1005.5 |
| 20260902194559 | 56 | 0 | 0.0 | 0.0 | 0.07 | 0.16 | 0.16 | 92 | 1005.6 |
| 20260902193101 | 56 | 0 | 0.0 | 0.0 | 0.06 | 0.14 | 0.14 | 92 | 1005.8 |
| 20260902191605 | 56 | 0 | 0.0 | 0.0 | 0.04 | 0.11 | 0.11 | 91 | 1006.0 |
| 20260902190104 | 56 | 0 | 0.0 | 0.0 | 0.03 | 0.09 | 0.09 | 91 | 1006.0 |
| 20260902184600 | 56 | 0 | 0.0 | 0.0 | 0.04 | 0.09 | 0.09 | 91 | 1006.1 |
| 20260902183105 | 56 | 0 | 0.0 | 0.0 | 0.06 | 0.08 | 0.08 | 91 | 1006.1 |
| 20260902181606 | 56 | 0 | 0.0 | 0.0 | 0.06 | 0.07 | 0.07 | 91 | 1006.6 |
| 20260902180113 | 56 | 0 | 0.0 | 0.0 | 0.06 | 0.06 | 0.06 | 89 | 1006.7 |
| 20260902174604 | 56 | 0 | 0.0 | 0.0 | 0.05 | 0.06 | 0.05 | 87 | 1006.7 |
| 20260902173101 | 57 | 0 | 0.0 | 0.0 | 0.02 | 0.03 | 0.02 | 85 | 1006.6 |
| 20260902171601 | 58 | 0 | 0.0 | 0.0 | 0.01 | 0.02 | 0.01 | 81 | 1006.5 |
| 20260902170105 | 59 | 0 | 0.0 | 0.0 | 0.00 | 0.01 | 0.00 | 77 | 1006.4 |
| 20260902164601 | 60 | 0 | 0.0 | 0.0 | 0.00 | 0.01 | 0.00 | 74 | 1006.3 |
| 20260902163056 | 61 | 0 | 0.0 | 0.0 | 0.00 | 0.01 | 0.00 | 72 | 1006.1 |
| 20260902161605 | 61 | 0 | 0.0 | 0.0 | 0.00 | 0.01 | 0.00 | 70 | 1006.1 |
| 20260902160059 | 61 | 0 | 0.0 | 0.0 | 0.00 | 0.01 | 0.00 | 70 | 1006.1 |
| 20260902154604 | 61 | 0 | 0.0 | 0.0 | 0.00 | 0.01 | 0.00 | 71 | 1006.2 |
| 20260902153104 | 60 | 0 | 0.0 | 0.0 | 0.00 | 0.01 | 0.00 | 73 | 1006.4 |
| 20260902151601 | 60 | 0 | 0.0 | 0.0 | 0.00 | 0.01 | 0.00 | 73 | 1006.5 |
| 20260902150059 | 60 | 0 | 0.0 | 0.0 | 0.00 | 0.01 | 0.00 | 75 | 1006.6 |
| 20260902144614 | 59 | 0 | 0.0 | 0.0 | 0.00 | 0.01 | 0.00 | 76 | 1006.7 |
| 20260902143057 | 59 | 0 | 0.0 | 0.0 | 0.00 | 0.01 | 0.00 | 76 | 1006.8 |
| 20260902141602 | 59 | 0 | 0.0 | 0.0 | 0.00 | 0.01 | 0.00 | 77 | 1007.0 |
| 20260902134601 | 58 | 0 | 0.0 | 0.0 | 0.00 | 0.01 | 0.00 | 79 | 1007.4 |
| 20260902133103 | 58 | 0 | 0.0 | 0.0 | 0.00 | 0.01 | 0.00 | 79 | 1007.5 |
| 20260902131557 | 58 | 0 | 0.0 | 0.0 | 0.00 | 0.01 | 0.00 | 79 | 1007.7 |
| 20260902130106 | 58 | 0 | 0.0 | 0.0 | 0.00 | 0.01 | 0.00 | 79 | 1008.0 |
| 20260902124556 | 58 | 0 | 0.0 | 0.0 | 0.00 | 0.01 | 0.00 | 79 | 1008.2 |
| 20260902123056 | 58 | 0 | 0.0 | 0.0 | 0.00 | 0.01 | 0.00 | 79 | 1008.3 |
| 20260902121600 | 58 | 0 | 0.0 | 0.0 | 0.00 | 0.01 | 0.00 | 80 | 1008.6 |
| 20260902120058 | 58 | 0 | 0.0 | 0.0 | 0.00 | 0.01 | 0.00 | 80 | 1008.8 |
| 20260902114558 | 58 | 0 | 0.0 | 0.0 | 0.00 | 0.01 | 0.00 | 80 | 1009.0 |
| 20260902113101 | 58 | 0 | 0.0 | 0.0 | 0.00 | 0.01 | 0.00 | 80 | 1009.0 |
| 20260902111556 | 58 | 0 | 0.0 | 0.0 | 0.00 | 0.01 | 0.00 | 80 | 1009.3 |
| 20260902110108 | 58 | 0 | 0.0 | 0.0 | 0.00 | 0.01 | 0.00 | 80 | 1009.4 |
| 20260902104557 | 58 | 0 | 0.0 | 0.0 | 0.00 | 0.01 | 0.00 | 80 | 1009.4 |
| 20260902103054 | 58 | 0 | 0.0 | 0.0 | 0.00 | 0.01 | 0.00 | 80 | 1009.5 |
| 20260902101602 | 58 | 0 | 0.0 | 0.0 | 0.00 | 0.01 | 0.00 | 82 | 1009.6 |
| 20260902100110 | 58 | 0 | 0.0 | 0.0 | 0.00 | 0.01 | 0.00 | 83 | 1009.5 |
| 20260902094616 | 57 | 0 | 0.0 | 0.0 | 0.00 | 0.01 | 0.00 | 84 | 1009.6 |
| 20260902093058 | 57 | 0 | 0.0 | 0.0 | 0.00 | 0.01 | 0.00 | 84 | 1009.8 |
| 20260902091602 | 57 | 0 | 0.0 | 0.0 | 0.00 | 0.01 | 0.00 | 85 | 1010.0 |
| 20260902084601 | 57 | 0 | 0.0 | 0.0 | 0.00 | 0.01 | 0.00 | 85 | 1010.3 |
| 20260902083058 | 58 | 0 | 0.0 | 0.0 | 0.00 | 0.01 | 0.00 | 84 | 1010.3 |
| 20260902081602 | 58 | 0 | 0.0 | 0.0 | 0.00 | 0.01 | 0.00 | 83 | 1010.3 |
| 20260902080113 | 59 | 0 | 0.0 | 0.0 | 0.00 | 0.01 | 0.00 | 82 | 1010.3 |
| 20260902074600 | 59 | 0 | 0.0 | 0.0 | 0.00 | 0.01 | 0.00 | 81 | 1010.3 |
| 20260902073103 | 59 | 0 | 0.0 | 0.0 | 0.00 | 0.01 | 0.00 | 80 | 1010.4 |
| 20260902071555 | 59 | 0 | 0.0 | 0.0 | 0.00 | 0.01 | 0.00 | 79 | 1010.7 |
| 20260902070107 | 59 | 0 | 0.0 | 0.0 | 0.00 | 0.01 | 0.00 | 79 | 1010.9 |
| 20260902064611 | 59 | 0 | 0.0 | 0.0 | 0.00 | 0.01 | 0.01 | 79 | 1011.0 |
| 20260902063106 | 59 | 0 | 0.0 | 0.0 | 0.00 | 0.01 | 0.01 | 80 | 1010.9 |
| 20260902061602 | 59 | 0 | 0.0 | 0.0 | 0.00 | 0.01 | 0.01 | 79 | 1010.7 |
| 20260902060113 | 60 | 0 | 0.0 | 0.0 | 0.00 | 0.01 | 0.01 | 80 | 1010.9 |
| 20260902054557 | 60 | 0 | 0.0 | 0.0 | 0.00 | 0.01 | 0.01 | 79 | 1010.8 |
| 20260902053124 | 60 | 0 | 0.0 | 0.0 | 0.00 | 0.01 | 0.01 | 79 | 1011.1 |
| 20260902051606 | 60 | 0 | 0.0 | 0.0 | 0.00 | 0.01 | 0.01 | 78 | 1011.1 |
| 20260902050059 | 60 | 0 | 0.0 | 0.0 | 0.00 | 0.01 | 0.01 | 77 | 1011.1 |
| 20260902044601 | 61 | 0 | 0.0 | 0.0 | 0.00 | 0.01 | 0.01 | 77 | 1011.2 |
| 20260902043100 | 61 | 0 | 0.0 | 0.0 | 0.00 | 0.01 | 0.01 | 75 | 1011.1 |
| 20260902041600 | 61 | 0 | 0.0 | 0.0 | 0.00 | 0.01 | 0.01 | 75 | 1011.1 |